Location: Acequia del Cap
(41.7000°N, 0.6167°E)
Time: 22:46:32
(UTC+00:00)

Spot 4 Rocket - Pass Details

Date: 07 August 2020
Orbit: 776 x 781 km, 98.7° (Epoch: 22 September)

Event Time Altitude Azimuth Distance (km) Brightness Sun altitude
Rises 03:11:54 0° 12° (NNE) 3,278 8.2 -17.5°
Reaches altitude 10° 03:14:14 10° 12° (NNE) 2,345 7.3 -17.2°
Maximum altitude 03:19:25 84° 285° (WNW) 791 4.0 -16.4°
Enters shadow 03:22:59 21° 198° (SSW) 1,717 5.3 -15.9°
